QPF
0.03 0.03 0.02 0.03 0.03 0.01 0.01 0.00 0.00 0.03 0.04 0.07 0.09 0.05 0.03 0.03 0.01 0.00 0.00 0.00 0.00 0.00 0.00 0.00 0.00 0.00 0.00 0.00 0.00 0.00 0.00 0.00 0.00 0.00 0.00 0.00 0.00 0.00 0.00 0.00 0.00 0.00 0.00 0.00 0.00 0.00 0.00
0.03 0.03 0.02 0.02 0.04 0.03 0.03 0.03 0.03 0.05 0.06 0.05 0.01 0.00 0.00 0.01 0.01 0.00 0.00 0.00 0.00 0.00 0.00 0.00 0.00 0.00 0.00 0.00 0.00 0.00 0.00 0.00 0.00 0.00 0.00 0.00 0.00 0.00 0.00 0.00 0.00 0.00 0.00 0.00 0.00 0.00 0.00
0.01 0.03 0.02 0.01 0.01 0.02 0.03 0.03 0.03 0.03 0.04 0.04 0.02 0.01 0.01 0.00 0.00 0.00 0.00 0.00 0.00 0.00 0.00 0.00 0.00 0.00 0.00 0.00 0.00 0.00 0.00 0.00 0.00 0.00 0.00 0.00 0.00 0.00 0.00 0.00 0.00 0.00 0.00 0.00 0.00 0.00 0.00
0.00 0.00 0.02 0.01 0.00 0.00 0.00 0.00 0.02 0.02 0.02 0.01 0.01 0.01 0.01 0.00 0.00 0.00 0.00 0.00 0.00 0.00 0.00 0.00 0.00 0.00 0.00 0.00 0.00 0.00 0.00 0.00 0.00 0.00 0.00 0.00 0.00 0.00 0.00 0.00 0.00 0.00 0.00 0.00 0.00 0.00 0.00
0.00 0.00 0.00 0.00 0.00 0.00 0.00 0.00 0.00 0.00 0.00 0.00 0.00 0.00 0.00 0.00 0.00 0.00 0.00 0.00 0.00 0.00 0.00 0.00 0.00 0.00 0.00 0.00 0.00 0.00 0.00 0.00 0.00 0.00 0.00 0.00 0.00 0.00 0.00 0.00 0.00 0.00 0.00 0.00 0.00 0.00 0.00
0.00 0.00 0.00 0.00 0.00 0.00 0.00 0.00 0.00 0.00 0.00 0.00 0.00 0.00 0.00 0.00 0.00 0.00 0.00 0.00 0.00 0.00 0.00 0.00 0.00 0.00 0.00 0.00 0.00 0.00 0.00 0.00 0.00 0.00 0.00 0.00 0.00 0.00 0.00 0.00 0.00 0.00 0.00 0.00 0.00 0.00 0.00
0.00 0.00 0.00 0.00 0.00 0.00 0.00 0.00 0.00 0.00 0.00 0.00 0.00 0.00 0.00 0.00 0.00 0.00 0.00 0.00 0.00 0.00 0.00 0.00 0.00 0.00 0.00 0.00 0.00 0.00 0.00 0.00 0.00 0.00 0.00 0.00 0.00 0.00 0.00 0.00 0.00 0.00 0.00 0.00 0.00 0.00 0.00
0.00 0.00 0.00 0.00 0.00 0.00 0.00 0.00 0.00 0.00 0.00 0.00 0.00 0.00 0.00 0.00 0.00 0.00 0.00 0.00 0.00 0.00 0.00 0.00 0.00 0.00 0.00 0.00 0.00 0.00 0.00 0.00 0.00 0.00 0.00 0.00 0.00 0.00 0.00 0.00 0.00 0.00 0.00 0.00 0.00 0.00 0.00
0.00 0.00 0.00 0.00 0.00 0.00 0.00 0.00 0.00 0.00 0.00 0.00 0.00 0.00 0.00 0.00 0.00 0.00 0.00 0.00 0.00 0.00 0.00 0.00 0.00 0.00 0.00 0.00 0.00 0.00 0.00 0.00 0.00 0.00 0.00 0.00 0.00 0.00 0.00 0.00 0.00 0.00 0.00 0.00 0.00 0.00 0.00
0.00 0.00 0.00 0.00 0.00 0.00 0.00 0.00 0.00 0.00 0.00 0.00 0.00 0.00 0.00 0.00 0.00 0.00 0.00 0.00 0.00 0.00 0.00 0.00 0.00 0.00 0.00 0.00 0.00 0.00 0.00 0.00 0.00 0.00 0.00 0.00 0.00 0.00 0.00 0.00 0.00 0.00 0.00 0.00 0.00 0.00 0.00
0.00 0.00 0.00 0.00 0.00 0.00 0.00 0.00 0.00 0.00 0.00 0.00 0.00 0.00 0.00 0.00 0.00 0.00 0.00 0.00 0.00 0.00 0.00 0.00 0.00 0.00 0.00 0.00 0.00 0.00 0.00 0.00 0.00 0.00 0.00 0.00 0.00 0.00 0.00 0.00 0.00 0.00 0.00 0.00 0.00 0.00 0.00
0.00 0.00 0.00 0.00 0.00 0.00 0.00 0.00 0.00 0.00 0.00 0.00 0.00 0.00 0.00 0.00 0.00 0.00 0.00 0.00 0.00 0.00 0.00 0.00 0.00 0.00 0.00 0.00 0.00 0.00 0.00 0.00 0.00 0.00 0.00 0.00 0.00 0.00 0.00 0.00 0.00 0.00 0.00 0.00 0.00 0.00 0.00
0.00 0.00 0.00 0.00 0.00 0.00 0.00 0.00 0.00 0.00 0.00 0.00 0.00 0.00 0.00 0.00 0.00 0.00 0.00 0.00 0.00 0.00 0.00 0.00 0.00 0.00 0.00 0.00 0.00 0.00 0.00 0.00 0.00 0.00 0.00 0.00 0.00 0.00 0.00 0.00 0.00 0.00 0.00 0.00 0.00 0.00 0.00
0.00 0.00 0.00 0.00 0.00 0.00 0.00 0.00 0.00 0.00 0.00 0.00 0.00 0.00 0.00 0.00 0.00 0.00 0.00 0.00 0.00 0.00 0.00 0.00 0.00 0.00 0.00 0.00 0.00 0.00 0.00 0.00 0.00 0.00 0.00 0.00 0.00 0.00 0.00 0.00 0.00 0.00 0.00 0.00 0.00 0.00 0.00
0.00 0.00 0.00 0.00 0.00 0.00 0.00 0.00 0.00 0.00 0.00 0.00 0.00 0.00 0.00 0.00 0.00 0.00 0.00 0.00 0.00 0.00 0.00 0.00 0.00 0.00 0.00 0.00 0.00 0.00 0.00 0.00 0.00 0.00 0.00 0.00 0.00 0.00 0.00 0.00 0.00 0.00 0.00 0.00 0.00 0.00 0.00
0.00 0.00 0.00 0.00 0.00 0.00 0.00 0.00 0.00 0.00 0.00 0.00 0.00 0.00 0.00 0.00 0.00 0.00 0.00 0.00 0.00 0.00 0.00 0.00 0.00 0.00 0.00 0.00 0.00 0.00 0.00 0.00 0.00 0.00 0.00 0.00 0.00 0.00 0.00 0.00 0.00 0.00 0.00 0.00 0.00 0.00 0.00
0.00 0.00 0.00 0.00 0.00 0.00 0.00 0.00 0.00 0.00 0.00 0.00 0.00 0.00 0.00 0.00 0.00 0.00 0.00 0.00 0.00 0.00 0.00 0.00 0.00 0.00 0.00 0.00 0.00 0.00 0.00 0.00 0.00 0.00 0.00 0.00 0.00 0.00 0.00 0.00 0.00 0.00 0.00 0.00 0.00 0.00 0.00
0.00 0.00 0.00 0.00 0.00 0.00 0.00 0.00 0.00 0.00 0.00 0.00 0.00 0.00 0.00 0.00 0.00 0.00 0.00 0.00 0.00 0.00 0.00 0.00 0.00 0.00 0.00 0.00 0.00 0.00 0.00 0.00 0.00 0.00 0.00 0.00 0.00 0.00 0.00 0.00 0.00 0.00 0.00 0.00 0.00 0.00 0.00
0.00 0.00 0.00 0.00 0.00 0.00 0.00 0.00 0.00 0.00 0.00 0.00 0.00 0.00 0.00 0.00 0.00 0.00 0.00 0.00 0.00 0.00 0.00 0.00 0.00 0.00 0.00 0.00 0.00 0.00 0.00 0.00 0.00 0.00 0.00 0.00 0.00 0.00 0.00 0.00 0.00 0.00 0.00 0.00 0.00 0.00 0.00
0.00 0.00 0.00 0.00 0.00 0.00 0.00 0.00 0.00 0.00 0.00 0.00 0.00 0.00 0.00 0.00 0.00 0.00 0.00 0.00 0.00 0.00 0.00 0.00 0.00 0.00 0.00 0.00 0.00 0.00 0.00 0.00 0.00 0.00 0.00 0.00 0.00 0.00 0.00 0.00 0.00 0.00 0.00 0.00 0.00 0.00 0.00
0.00 0.00 0.00 0.00 0.00 0.00 0.00 0.00 0.00 0.00 0.00 0.00 0.00 0.00 0.00 0.00 0.00 0.00 0.00 0.00 0.00 0.00 0.00 0.00 0.00 0.00 0.00 0.00 0.00 0.00 0.00 0.00 0.00 0.00 0.00 0.00 0.00 0.00 0.00 0.00 0.00 0.00 0.00 0.00 0.00 0.00 0.00
0.00 0.00 0.00 0.00 0.00 0.00 0.00 0.00 0.00 0.00 0.00 0.00 0.00 0.00 0.00 0.00 0.00 0.00 0.00 0.00 0.00 0.00 0.00 0.00 0.00 0.00 0.00 0.00 0.00 0.00 0.00 0.00 0.00 0.00 0.00 0.00 0.00 0.00 0.00 0.00 0.00 0.00 0.00 0.00 0.00 0.00 0.00
0.00 0.00 0.00 0.00 0.00 0.00 0.00 0.00 0.00 0.00 0.00 0.00 0.00 0.00 0.00 0.00 0.00 0.00 0.00 0.00 0.00 0.00 0.00 0.00 0.00 0.00 0.00 0.00 0.00 0.00 0.00 0.00 0.00 0.00 0.00 0.00 0.00 0.00 0.00 0.00 0.00 0.00 0.00 0.00 0.00 0.00 0.00
0.00 0.00 0.00 0.00 0.00 0.00 0.00 0.00 0.00 0.00 0.00 0.00 0.00 0.00 0.00 0.00 0.00 0.00 0.00 0.00 0.00 0.00 0.00 0.00 0.00 0.00 0.00 0.00 0.00 0.00 0.00 0.00 0.00 0.00 0.00 0.00 0.00 0.00 0.00 0.00 0.00 0.00 0.00 0.00 0.00 0.00 0.00
0.00 0.00 0.00 0.00 0.00 0.00 0.00 0.00 0.00 0.00 0.00 0.00 0.00 0.00 0.00 0.00 0.00 0.00 0.00 0.00 0.00 0.00 0.00 0.00 0.00 0.00 0.00 0.00 0.00 0.00 0.00 0.00 0.00 0.00 0.00 0.00 0.00 0.00 0.00 0.00 0.00 0.00 0.00 0.00 0.00 0.00 0.00
0.00 0.00 0.00 0.00 0.00 0.00 0.00 0.00 0.00 0.00 0.00 0.00 0.00 0.00 0.00 0.00 0.00 0.00 0.00 0.00 0.00 0.00 0.00 0.00 0.00 0.00 0.00 0.00 0.00 0.00 0.00 0.00 0.00 0.00 0.00 0.00 0.00 0.00 0.00 0.00 0.00 0.00 0.00 0.00 0.00 0.00 0.00
0.00 0.00 0.00 0.00 0.00 0.00 0.00 0.00 0.00 0.00 0.00 0.00 0.00 0.00 0.00 0.00 0.00 0.00 0.00 0.00 0.00 0.00 0.00 0.00 0.00 0.00 0.00 0.00 0.00 0.00 0.00 0.00 0.00 0.00 0.00 0.00 0.00 0.00 0.00 0.00 0.00 0.00 0.00 0.00 0.00 0.00 0.00
0.00 0.00 0.00 0.00 0.00 0.00 0.00 0.00 0.00 0.00 0.00 0.00 0.00 0.00 0.00 0.00 0.00 0.00 0.00 0.00 0.00 0.00 0.00 0.00 0.00 0.00 0.00 0.00 0.00 0.00 0.00 0.00 0.00 0.00 0.00 0.00 0.00 0.00 0.00 0.00 0.00 0.00 0.00 0.00 0.00 0.00 0.00
0.00 0.00 0.00 0.00 0.00 0.00 0.00 0.00 0.00 0.00 0.00 0.00 0.00 0.00 0.00 0.00 0.00 0.00 0.00 0.00 0.00 0.00 0.00 0.00 0.00 0.00 0.00 0.00 0.00 0.00 0.00 0.00 0.00 0.00 0.00 0.00 0.00 0.00 0.00 0.00 0.00 0.00 0.00 0.00 0.00 0.00 0.00
MSLP
1019.18 1018.87 1018.39 1018.05 1017.56 1017.03 1016.81 1016.84 1016.66 1016.30 1015.74 1015.40 1015.42 1015.85 1016.74 1017.12 1017.42 1017.82 1017.93 1018.07 1018.31 1018.69 1018.81 1018.62 1018.42 1018.14 1017.97 1019.02 1020.38 1020.02 1019.50 1018.98 1018.42 1018.09 1018.27 1018.30 1018.61 1018.76 1019.07 1019.27 1019.45 1019.73 1019.91 1019.66 1019.64 1019.62 1019.64
1019.91 1019.55 1019.25 1018.87 1018.44 1017.97 1017.65 1017.70 1017.30 1017.21 1017.20 1017.25 1017.41 1017.32 1017.68 1017.72 1017.92 1018.08 1018.24 1018.51 1018.86 1019.01 1019.03 1018.83 1018.57 1018.26 1018.58 1019.83 1020.53 1020.12 1019.79 1019.49 1019.44 1019.05 1019.11 1019.09 1019.56 1019.52 1019.57 1019.83 1020.18 1020.28 1020.20 1020.01 1019.80 1019.89 1019.94
1020.83 1020.47 1020.05 1019.75 1019.44 1019.13 1018.51 1018.30 1018.66 1018.34 1017.87 1017.97 1018.13 1018.05 1018.41 1018.63 1018.80 1018.85 1018.94 1019.32 1019.23 1019.21 1019.21 1019.08 1018.99 1018.90 1019.57 1020.98 1020.68 1020.27 1019.99 1020.01 1020.00 1020.05 1019.88 1019.87 1019.93 1019.91 1020.04 1020.42 1020.66 1020.69 1020.82 1020.40 1019.97 1020.10 1020.29
1021.78 1021.31 1021.02 1020.66 1020.31 1019.92 1019.65 1019.20 1018.84 1018.83 1018.93 1018.67 1018.46 1018.83 1019.18 1019.46 1019.58 1019.56 1019.48 1019.37 1019.37 1019.34 1019.31 1019.24 1019.29 1019.36 1020.78 1020.88 1020.65 1020.47 1020.41 1020.35 1020.22 1020.33 1020.20 1020.13 1020.07 1020.34 1020.84 1021.02 1021.21 1021.41 1021.46 1021.32 1020.46 1020.39 1020.62
1022.58 1022.15 1021.81 1021.50 1021.13 1020.75 1020.42 1020.22 1020.07 1020.03 1019.95 1019.79 1019.70 1019.89 1019.98 1019.97 1019.89 1019.90 1019.76 1019.48 1019.43 1019.22 1019.28 1019.34 1019.48 1019.76 1021.39 1021.09 1021.10 1021.01 1020.92 1020.90 1020.62 1020.54 1020.41 1020.18 1020.45 1021.34 1021.67 1022.11 1022.49 1022.43 1022.40 1021.90 1021.30 1020.87 1020.94
1023.34 1022.91 1022.64 1022.36 1021.99 1021.73 1021.33 1020.97 1020.79 1020.71 1020.73 1020.77 1020.77 1020.71 1020.55 1020.41 1020.26 1020.13 1020.01 1020.04 1019.90 1019.71 1019.72 1019.59 1019.94 1020.66 1021.76 1021.90 1021.62 1021.43 1021.18 1021.10 1021.06 1021.02 1020.99 1021.05 1021.63 1022.36 1023.14 1023.37 1024.02 1023.92 1023.61 1023.09 1022.55 1022.07 1021.76
1023.94 1023.61 1023.37 1023.07 1022.79 1022.46 1022.19 1021.85 1021.37 1021.19 1021.22 1021.19 1021.11 1021.01 1020.93 1020.72 1020.48 1020.17 1020.14 1020.17 1020.95 1021.22 1021.01 1021.39 1021.81 1021.80 1022.02 1021.92 1021.72 1021.63 1021.36 1021.27 1021.15 1021.48 1022.13 1022.30 1023.21 1024.05 1024.22 1024.19 1024.27 1024.34 1024.32 1024.18 1023.42 1023.02 1022.60
1024.43 1024.10 1023.86 1023.65 1023.37 1023.07 1022.76 1022.41 1022.18 1021.88 1021.57 1021.32 1021.27 1021.31 1021.22 1020.98 1020.69 1020.22 1020.57 1021.72 1022.55 1022.68 1022.55 1022.22 1022.11 1022.03 1021.95 1021.94 1021.94 1022.08 1021.63 1021.80 1021.91 1022.78 1022.85 1023.58 1024.36 1024.44 1024.31 1024.41 1024.61 1024.82 1024.86 1024.66 1023.89 1023.61 1023.78
1025.02 1024.65 1024.34 1024.08 1023.87 1023.57 1023.14 1022.88 1022.53 1022.30 1022.20 1022.11 1021.92 1021.58 1021.26 1021.06 1020.96 1021.15 1021.79 1022.46 1022.48 1022.36 1022.60 1022.72 1022.32 1022.35 1022.37 1022.30 1022.66 1022.81 1022.56 1022.49 1022.80 1023.34 1023.86 1024.19 1024.62 1024.37 1024.36 1024.50 1024.78 1025.07 1025.17 1025.15 1025.30 1024.91 1024.10
1025.33 1025.16 1024.95 1024.67 1024.33 1024.03 1023.62 1023.24 1022.89 1022.57 1022.39 1022.23 1022.12 1021.77 1021.38 1021.14 1021.34 1021.74 1022.54 1022.64 1022.44 1022.30 1023.38 1023.92 1022.90 1022.79 1022.58 1022.38 1022.97 1022.86 1022.79 1023.07 1023.10 1023.83 1024.10 1024.43 1024.37 1024.22 1024.20 1024.39 1024.74 1025.37 1025.31 1025.59 1025.92 1026.22 1026.07
1025.70 1025.51 1025.30 1025.11 1024.84 1024.44 1024.04 1023.64 1023.41 1023.12 1022.82 1022.57 1022.24 1021.92 1021.66 1021.44 1021.78 1022.47 1023.00 1022.61 1022.45 1022.77 1024.39 1024.52 1023.40 1022.62 1022.57 1023.04 1023.40 1022.98 1022.95 1023.02 1023.78 1024.14 1024.45 1024.58 1024.29 1024.28 1024.28 1024.46 1024.73 1025.30 1025.52 1025.88 1026.46 1027.04 1027.24
1026.12 1025.82 1025.59 1025.36 1025.08 1024.83 1024.45 1023.96 1023.67 1023.42 1023.17 1022.96 1022.69 1022.14 1021.70 1021.94 1022.49 1023.06 1022.76 1022.58 1022.78 1023.75 1025.32 1024.82 1023.98 1023.61 1023.55 1023.51 1023.67 1023.46 1023.60 1023.74 1024.09 1024.52 1024.72 1024.76 1024.52 1024.54 1024.45 1024.54 1024.87 1025.33 1025.90 1026.59 1027.02 1027.68 1027.86
1026.39 1026.14 1025.72 1025.52 1025.29 1025.00 1024.70 1024.44 1024.06 1023.70 1023.46 1023.21 1022.96 1022.66 1022.21 1022.37 1023.12 1022.89 1022.77 1023.05 1023.86 1024.76 1025.96 1025.60 1024.93 1024.58 1024.56 1024.62 1024.53 1024.62 1024.78 1025.08 1025.48 1025.90 1026.03 1025.42 1024.94 1024.55 1024.45 1024.79 1025.13 1025.95 1027.11 1027.79 1028.33 1028.52 1027.74
1026.68 1026.44 1026.13 1025.91 1025.56 1025.26 1024.97 1024.67 1024.32 1023.97 1023.65 1023.46 1023.24 1023.00 1022.94 1022.86 1022.86 1022.87 1023.34 1024.02 1024.92 1025.85 1025.93 1025.75 1025.72 1025.61 1025.61 1025.69 1025.78 1025.76 1025.86 1026.27 1026.20 1026.51 1026.91 1026.71 1025.81 1025.28 1024.84 1025.03 1025.66 1026.44 1027.48 1028.27 1029.05 1029.03 1028.08
1026.97 1026.71 1026.43 1026.13 1025.83 1025.46 1025.16 1024.84 1024.53 1024.19 1023.83 1023.48 1023.23 1023.38 1023.26 1023.30 1022.90 1023.03 1023.78 1025.01 1025.74 1025.68 1025.48 1025.51 1025.98 1026.06 1026.13 1026.41 1026.83 1027.01 1026.85 1026.99 1026.93 1026.98 1027.48 1027.40 1026.30 1025.41 1025.11 1025.08 1025.85 1026.44 1027.28 1027.83 1028.56 1028.96 1028.69
1027.20 1026.95 1026.66 1026.42 1026.06 1025.70 1025.35 1025.02 1024.64 1024.23 1023.89 1023.63 1023.74 1023.82 1023.68 1023.16 1023.11 1023.58 1024.41 1025.56 1025.63 1025.33 1025.12 1025.21 1025.73 1026.14 1026.60 1026.64 1027.14 1027.35 1027.29 1026.81 1026.84 1026.89 1027.12 1027.78 1027.33 1025.75 1025.49 1025.40 1025.79 1026.12 1026.96 1027.79 1028.32 1028.64 1027.83
1027.30 1027.07 1026.81 1026.57 1026.38 1025.98 1025.55 1025.13 1024.73 1024.26 1023.77 1023.52 1023.89 1024.23 1023.43 1023.03 1023.44 1024.06 1025.42 1025.47 1025.25 1025.11 1025.05 1025.10 1025.25 1025.50 1025.84 1026.25 1026.73 1027.25 1027.11 1026.70 1026.42 1026.69 1026.92 1027.35 1027.84 1026.61 1025.94 1025.50 1025.37 1026.19 1026.40 1026.94 1027.30 1027.49 1027.33
1027.38 1027.20 1027.00 1026.76 1026.52 1026.25 1025.86 1025.33 1024.82 1024.39 1023.78 1023.57 1024.15 1024.32 1023.29 1023.19 1024.18 1024.87 1025.41 1024.93 1024.78 1024.91 1024.92 1024.89 1024.94 1025.05 1025.25 1025.58 1026.25 1026.79 1026.90 1026.54 1026.05 1026.30 1026.74 1027.00 1027.44 1027.24 1025.75 1024.54 1024.22 1024.76 1025.13 1025.71 1026.79 1027.13 1027.02
1027.57 1027.32 1027.20 1027.03 1026.77 1026.40 1026.06 1025.71 1025.15 1024.66 1024.41 1024.83 1024.95 1024.58 1023.65 1023.56 1025.08 1025.63 1025.23 1024.88 1024.56 1024.54 1024.61 1024.67 1024.67 1024.78 1024.84 1025.31 1025.86 1026.02 1025.96 1025.55 1025.72 1026.13 1026.45 1026.88 1027.43 1027.18 1025.90 1025.18 1024.45 1024.48 1024.45 1024.66 1025.26 1025.99 1026.28
1027.67 1027.46 1027.27 1027.19 1026.98 1026.71 1026.27 1025.86 1025.48 1024.96 1024.62 1024.84 1025.28 1025.61 1024.94 1024.83 1025.20 1025.28 1025.11 1024.86 1024.63 1024.39 1024.38 1024.40 1024.56 1024.66 1024.90 1025.02 1025.06 1025.42 1025.53 1025.63 1025.62 1025.89 1026.20 1026.63 1026.96 1026.65 1025.86 1024.66 1024.27 1024.13 1023.69 1023.90 1024.56 1025.35 1024.95
1027.66 1027.41 1027.27 1027.20 1027.10 1026.86 1026.54 1026.14 1025.61 1025.17 1024.70 1024.90 1025.62 1026.40 1026.06 1026.37 1025.66 1025.29 1024.96 1024.79 1024.56 1024.54 1024.51 1024.40 1024.55 1024.54 1024.75 1024.92 1024.83 1025.10 1025.07 1025.48 1025.83 1025.93 1026.47 1027.01 1027.22 1026.73 1025.75 1024.50 1023.81 1023.06 1022.80 1022.94 1023.11 1023.15 1023.51
1027.73 1027.51 1027.22 1027.07 1026.98 1026.91 1026.69 1026.35 1025.95 1025.24 1024.75 1025.01 1026.26 1026.62 1026.49 1026.20 1025.62 1025.39 1025.10 1024.68 1024.46 1024.26 1024.45 1024.52 1024.70 1024.51 1024.60 1024.71 1024.67 1024.95 1025.08 1025.24 1025.62 1026.40 1026.74 1027.03 1027.06 1026.58 1025.03 1023.36 1022.82 1021.83 1020.84 1020.79 1020.93 1020.98 1020.80
1027.61 1027.44 1027.29 1027.07 1026.90 1026.83 1026.76 1026.55 1026.21 1025.72 1025.06 1025.68 1026.03 1026.30 1026.77 1026.53 1025.91 1025.49 1025.15 1024.55 1024.31 1024.30 1024.20 1024.23 1024.46 1024.54 1024.46 1024.29 1024.52 1024.64 1024.78 1025.00 1025.31 1025.83 1026.58 1027.07 1027.32 1027.04 1025.38 1023.44 1022.05 1020.13 1018.12 1018.14 1018.38 1018.30 1018.42
1027.39 1027.29 1027.18 1027.04 1026.90 1026.73 1026.71 1026.62 1026.54 1026.30 1026.17 1026.61 1026.58 1026.46 1026.93 1026.86 1026.16 1025.36 1024.53 1024.36 1024.36 1024.34 1024.39 1024.22 1024.37 1024.67 1024.47 1024.33 1024.27 1024.14 1024.35 1024.61 1024.91 1025.24 1025.72 1026.21 1026.78 1026.95 1025.70 1023.98 1021.41 1017.91 1016.77 1016.45 1016.45 1015.92 1016.09
1027.33 1027.09 1027.02 1026.88 1026.70 1026.62 1026.54 1026.56 1026.59 1026.56 1026.41 1026.48 1026.62 1026.89 1026.81 1026.74 1025.88 1025.06 1024.53 1024.26 1024.26 1024.34 1024.49 1024.30 1024.21 1024.39 1024.42 1024.62 1024.87 1024.71 1024.53 1024.69 1024.54 1024.96 1025.26 1025.72 1026.50 1026.73 1025.96 1024.59 1020.54 1016.96 1016.06 1015.59 1015.49 1014.52 1013.61
1027.07 1026.87 1026.78 1026.65 1026.48 1026.39 1026.37 1026.33 1026.42 1026.56 1026.54 1026.61 1026.74 1026.87 1026.97 1026.66 1025.40 1024.56 1024.45 1024.36 1024.59 1024.72 1024.61 1024.25 1024.34 1024.50 1024.74 1025.26 1025.47 1025.24 1024.57 1024.01 1024.72 1025.15 1025.22 1025.38 1025.79 1026.65 1026.02 1024.85 1021.40 1016.99 1015.75 1015.29 1015.09 1014.11 1012.69
1026.70 1026.57 1026.47 1026.40 1026.29 1026.18 1026.10 1026.09 1026.11 1026.22 1026.35 1026.71 1026.67 1026.85 1026.96 1026.70 1024.79 1024.10 1024.11 1024.36 1024.35 1024.57 1024.82 1024.55 1024.60 1024.87 1025.13 1025.71 1026.10 1025.60 1024.57 1023.74 1024.11 1024.51 1025.13 1025.44 1025.52 1025.48 1025.45 1024.22 1020.09 1016.23 1015.39 1015.10 1015.00 1013.53 1012.35
1026.29 1026.19 1026.09 1026.00 1025.93 1025.81 1025.75 1025.73 1025.79 1025.93 1026.04 1026.40 1026.52 1026.59 1027.04 1026.53 1024.87 1023.70 1023.53 1023.66 1024.02 1024.37 1024.87 1024.90 1025.22 1025.25 1025.80 1026.04 1025.75 1025.08 1024.47 1023.40 1023.41 1023.15 1023.49 1023.75 1024.18 1024.18 1024.06 1022.75 1018.56 1014.94 1015.27 1014.64 1012.43 1011.99 1011.93
1025.90 1025.78 1025.70 1025.56 1025.41 1025.29 1025.22 1025.18 1025.24 1025.42 1025.73 1026.04 1026.38 1026.30 1026.56 1026.89 1025.10 1024.04 1023.20 1022.87 1023.11 1023.55 1024.02 1024.44 1024.72 1024.74 1024.67 1025.39 1025.24 1024.74 1024.29 1023.48 1023.00 1022.74 1021.69 1021.89 1020.52 1020.62 1020.16 1016.93 1014.33 1013.52 1012.20 1011.75 1011.64 1011.60 1011.59
Thickness
5538 5529 5520 5513 5508 5509 5502 5496 5497 5500 5513 5528 5533 5534 5529 5527 5527 5527 5533 5540 5546 5550 5558 5569 5578 5587 5594 5585 5580 5591 5599 5609 5617 5623 5623 5625 5622 5623 5624 5624 5628 5625 5626 5634 5637 5641 5641
5542 5535 5526 5520 5518 5517 5515 5511 5517 5516 5520 5523 5524 5527 5526 5530 5529 5531 5534 5538 5541 5548 5556 5565 5573 5582 5584 5570 5578 5584 5592 5599 5602 5608 5609 5612 5611 5615 5617 5614 5614 5616 5618 5621 5630 5632 5635
5545 5538 5534 5528 5523 5522 5527 5527 5517 5519 5528 5529 5530 5532 5528 5528 5529 5532 5536 5534 5541 5547 5552 5560 5567 5573 5570 5561 5571 5578 5583 5587 5591 5593 5596 5600 5603 5606 5606 5605 5609 5610 5606 5613 5621 5623 5624
5548 5543 5537 5533 5531 5528 5528 5532 5534 5533 5532 5532 5536 5533 5529 5529 5529 5530 5534 5541 5544 5548 5552 5556 5561 5565 5552 5562 5567 5573 5576 5579 5582 5584 5589 5593 5595 5597 5594 5598 5598 5597 5598 5593 5613 5615 5613
5552 5548 5542 5539 5536 5534 5533 5532 5531 5531 5531 5531 5531 5528 5529 5532 5535 5536 5540 5542 5544 5551 5552 5554 5558 5557 5544 5555 5557 5563 5566 5568 5575 5578 5582 5587 5588 5581 5583 5576 5565 5581 5563 5591 5599 5607 5606
5555 5552 5547 5543 5540 5538 5537 5536 5534 5531 5530 5528 5528 5529 5529 5530 5532 5535 5538 5539 5542 5547 5547 5550 5552 5548 5543 5543 5550 5555 5559 5562 5565 5567 5570 5573 5569 5559 5551 5534 5526 5555 5563 5567 5577 5588 5593
5559 5555 5552 5548 5544 5542 5541 5539 5540 5537 5533 5530 5528 5528 5528 5530 5532 5534 5537 5537 5532 5527 5532 5529 5531 5535 5538 5542 5547 5548 5554 5557 5561 5559 5548 5557 5529 5517 5542 5548 5554 5556 5556 5550 5558 5573 5575
5565 5561 5557 5553 5550 5547 5545 5545 5543 5542 5541 5539 5535 5531 5528 5528 5530 5533 5532 5522 5517 5522 5519 5528 5531 5534 5538 5539 5540 5540 5548 5547 5548 5537 5545 5524 5515 5538 5544 5545 5543 5542 5540 5536 5554 5562 5556
5569 5566 5563 5559 5555 5553 5552 5549 5549 5548 5545 5542 5539 5538 5537 5534 5532 5529 5522 5519 5522 5525 5517 5526 5531 5530 5531 5535 5530 5530 5536 5537 5536 5531 5526 5515 5527 5535 5535 5531 5528 5527 5530 5531 5527 5534 5545
5573 5570 5567 5563 5561 5558 5557 5556 5554 5553 5551 5550 5547 5546 5545 5543 5538 5533 5525 5526 5526 5529 5484 5509 5522 5523 5527 5531 5525 5531 5531 5531 5533 5524 5526 5523 5527 5528 5528 5527 5517 5495 5527 5526 5521 5502 5490
5579 5575 5572 5569 5566 5564 5563 5561 5559 5557 5555 5553 5553 5553 5550 5549 5544 5535 5532 5534 5535 5530 5459 5517 5523 5532 5531 5524 5525 5529 5529 5528 5518 5519 5516 5514 5520 5519 5519 5519 5519 5502 5518 5516 5505 5502 5477
5582 5580 5576 5573 5571 5568 5568 5567 5565 5563 5561 5558 5556 5558 5557 5552 5547 5541 5541 5541 5538 5495 5466 5503 5527 5526 5525 5529 5527 5529 5526 5525 5522 5519 5519 5516 5514 5511 5511 5512 5511 5507 5499 5494 5498 5491 5440
5584 5583 5582 5579 5576 5574 5573 5571 5570 5568 5566 5564 5561 5559 5560 5555 5546 5547 5548 5542 5508 5478 5520 5508 5518 5525 5517 5521 5524 5522 5519 5503 5492 5489 5477 5504 5512 5512 5511 5506 5504 5482 5452 5440 5453 5496 5481
5587 5585 5584 5582 5581 5580 5578 5576 5574 5573 5572 5569 5567 5564 5561 5558 5556 5553 5548 5526 5491 5533 5521 5527 5522 5513 5519 5516 5514 5509 5517 5480 5504 5496 5461 5460 5483 5490 5507 5503 5480 5484 5471 5435 5443 5486 5462
5589 5587 5585 5584 5584 5584 5583 5580 5579 5578 5577 5576 5574 5569 5565 5562 5560 5558 5543 5499 5520 5534 5537 5527 5515 5492 5515 5521 5504 5490 5505 5485 5501 5497 5477 5459 5477 5505 5504 5503 5486 5476 5460 5473 5446 5437 5472
5590 5588 5587 5586 5585 5585 5585 5585 5583 5583 5583 5581 5576 5572 5567 5568 5564 5557 5534 5531 5533 5540 5539 5536 5525 5521 5489 5503 5490 5493 5490 5514 5509 5506 5496 5479 5455 5504 5501 5500 5495 5494 5482 5483 5472 5481 5450
5592 5590 5589 5587 5586 5586 5586 5587 5587 5588 5589 5588 5581 5572 5577 5576 5569 5552 5523 5532 5544 5544 5540 5538 5535 5536 5535 5522 5521 5502 5492 5510 5516 5506 5505 5492 5465 5488 5503 5490 5488 5489 5479 5485 5474 5476 5474
5595 5592 5590 5589 5587 5586 5586 5588 5589 5590 5593 5592 5583 5568 5583 5581 5558 5542 5539 5557 5551 5546 5543 5541 5539 5539 5538 5538 5529 5495 5496 5497 5519 5516 5505 5501 5483 5464 5499 5523 5519 5503 5503 5504 5464 5509 5479
5596 5595 5591 5589 5588 5588 5587 5587 5589 5590 5590 5585 5580 5577 5584 5580 5549 5544 5559 5559 5558 5553 5548 5545 5544 5543 5542 5536 5520 5522 5518 5527 5520 5517 5513 5507 5479 5462 5495 5507 5518 5516 5512 5519 5514 5490 5467
5596 5595 5593 5590 5588 5588 5587 5588 5588 5590 5590 5586 5579 5562 5571 5570 5562 5570 5570 5564 5558 5557 5553 5552 5547 5546 5540 5537 5534 5532 5533 5525 5521 5520 5520 5512 5496 5499 5493 5516 5515 5518 5524 5525 5515 5463 5473
5594 5594 5593 5592 5589 5587 5586 5586 5588 5589 5591 5587 5576 5568 5568 5549 5565 5571 5573 5568 5566 5559 5554 5555 5548 5545 5542 5537 5541 5530 5534 5524 5521 5523 5514 5504 5495 5506 5512 5522 5526 5529 5529 5527 5518 5518 5499
5592 5592 5592 5591 5590 5587 5585 5585 5586 5588 5589 5584 5573 5568 5564 5563 5573 5574 5566 5570 5568 5568 5558 5552 5546 5550 5544 5538 5545 5537 5535 5536 5522 5512 5509 5506 5496 5506 5516 5537 5534 5532 5542 5543 5543 5542 5537
5591 5590 5590 5589 5587 5586 5585 5583 5582 5583 5586 5578 5574 5571 5564 5565 5567 5565 5560 5574 5571 5568 5565 5563 5555 5550 5546 5546 5541 5538 5535 5530 5528 5515 5505 5500 5492 5497 5489 5526 5534 5537 5557 5560 5559 5557 5555
5588 5587 5587 5586 5585 5583 5581 5581 5579 5577 5576 5571 5567 5566 5560 5560 5561 5565 5576 5575 5569 5564 5560 5564 5561 5553 5552 5548 5544 5542 5534 5530 5526 5521 5516 5512 5505 5503 5495 5509 5522 5574 5577 5581 5570 5576 5572
5584 5585 5585 5584 5584 5582 5579 5576 5575 5572 5570 5568 5565 5560 5559 5555 5561 5567 5575 5571 5568 5563 5557 5557 5556 5553 5549 5548 5534 5536 5534 5539 5537 5528 5522 5513 5504 5495 5483 5472 5539 5579 5583 5580 5576 5577 5585
5581 5582 5581 5580 5580 5579 5576 5574 5571 5569 5566 5564 5560 5557 5552 5550 5559 5574 5568 5565 5551 5548 5549 5557 5552 5546 5546 5534 5531 5546 5534 5550 5534 5523 5519 5521 5512 5490 5496 5493 5523 5580 5581 5577 5575 5556 5584
5574 5575 5575 5576 5575 5575 5573 5570 5568 5566 5564 5560 5557 5553 5550 5544 5558 5570 5560 5558 5556 5551 5544 5549 5546 5540 5538 5523 5522 5523 5538 5556 5541 5529 5512 5516 5518 5509 5508 5511 5529 5566 5577 5576 5567 5578 5586
5568 5568 5569 5570 5570 5570 5568 5567 5564 5561 5559 5557 5553 5550 5545 5544 5552 5567 5566 5561 5554 5544 5540 5543 5537 5530 5518 5522 5523 5531 5532 5542 5545 5539 5516 5512 5504 5501 5512 5506 5520 5576 5571 5568 5586 5591 5587
5560 5562 5562 5563 5564 5565 5564 5562 5560 5557 5554 5552 5548 5547 5543 5537 5548 5554 5559 5561 5558 5552 5542 5535 5537 5531 5528 5521 5521 5525 5533 5530 5533 5537 5535 5532 5539 5526 5528 5551 5581 5584 5593 5594 5590 5589 5586